Regional Weather Roundup
Issued by NWS

Home | Current Version | Previous Version | Text Only | Print | Product List | Glossary Off
Versions: 1 2 3 4 5 6 7 8 9 10 11 12 13 14 15 16 17 18 19 20 21 22 23 24 25 26 27 28 29 30 31 32 33 34 35 36 37 38 39 40 41 42 43 44 45 46 47 48 49 50

484
ASUS44 KJAN 310710
RWRMS

MISSISSIPPI HOURLY WEATHER ROUNDUP
NATIONAL WEATHER SERVICE JACKSON MS
100 AM CST SAT JAN 31 2015

NOTE: "FAIR: INDICATES FEW OR NO CLOUDS BELOW 12,000 FEET WITH NO
SIGNIFICANT WEATHER AND/OR OBSTRUCTIONS TO VISIBILITY.

MSZ001>002-007>008-010>013-018>021-025>028-034>036-310800-
NORTHWEST MISSISSIPPI

CITY           SKY/WX    TMP DP  RH WIND       PRES   REMARKS
CLARKSDALE     FAIR      34  30  86 N6        30.41F WCI  29
CLEVELAND      FAIR      33  32  95 N7        30.39F WCI  27
GREENWOOD      CLEAR     29  26  89 NE3       30.38F
GREENVILLE     PTCLDY    32  26  78 N7        30.38F WCI  26
GRENADA        FAIR      30  28  93 N3        30.40S
OLIVE BRANCH   CLEAR     32  28  86 CALM      30.40F
OXFORD         FAIR      32  25  74 CALM      30.40F
TUNICA         PTSUNNY   36  32  87 N3        30.42F
$$

MSZ003>006-009-014>017-022>024-029>033-037>039-310800-
NORTHEAST MISSISSIPPI

CITY           SKY/WX    TMP DP  RH WIND       PRES   REMARKS
COLUMBUS AFB   CLEAR     28  25  87 CALM      30.38F
CORINTH        FAIR      28  25  86 CALM      30.39F
GOLDN TRIANGLE CLEAR     32  25  74 NE3       30.37S
STARKVILLE     FAIR      34  27  75 CALM      30.38S
TUPELO         CLEAR     30  23  75 NE5       30.39F WCI  25
$$

MSZ040-058-310800-
CENTRAL MISSISSIPPI

CITY           SKY/WX    TMP DP  RH WIND       PRES   REMARKS
JACKSON INTL   CLEAR     38  29  70 NE3       30.36F
JACKSON HAWKNS CLEAR     36  30  79 CALM      30.37F
MERIDIAN KEY   PTCLDY    32  28  85 CALM      30.37F
MERIDIAN NAS   PTCLDY    33  28  81 CALM      30.37F
RAYMOND        FAIR      32  27  80 MISG      30.37F
VICKSBURG      CLEAR     38  31  76 NE6       30.37F WCI  33
$$

MSZ059>079-310800-
SOUTH MISSISSIPPI

CITY           SKY/WX    TMP DP  RH WIND       PRES   REMARKS
BROOKHAVEN       N/A     34  32  93 CALM      30.36F
HATTIESBURG    PTCLDY    41  30  65 CALM      30.36F
MCCOMB         PTCLDY    42  30  62 NE6       30.33F
NATCHEZ        CLEAR     39  30  70 NE5       30.34F
PINE BELT      PTCLDY    39  27  60 NE6       30.35S WCI  35
$$

MSZ080>082-310800-
COASTAL MISSISSIPPI

CITY           SKY/WX    TMP DP  RH WIND       PRES   REMARKS
BILOXI         CLEAR     43  33  67 N6        30.33F
PASCAGOULA     CLEAR     38  32  79 N5        30.33F WCI  34
GULFPORT       CLEAR     41  32  70 N3        30.33F
$$



USA.gov is the U.S. government's official web portal to all federal, state and local government web resources and services.